Zurück zum Katalog

NOAA 16 DEB

AktivPO
NORAD 42359·DEBRIS·🇺🇸 United States

Gestartet Sep 21, 2000 von Vandenberg Space Force Base

Loading…

Nächste Überflüge (nächste 24 Stunden)

TLE

AktuellSource: Space-Track

Epoche: Sep 14, 2026, 08:01 UTC

1 42359U 00055RB  26257.33421713  .00003915  00000-0  10655-2 0  9996
2 42359  98.9756  81.4501 0012916 275.6370  84.3348 14.48026976543310

Verfolge NOAA 16 DEB in Echtzeit mit AllMySat

Download on the App Store